GW4652 Weather Reports


Display with metric or nautical units.
time (UTC)temp
F
wind
direction
speed
MPH
gust
MPH
rain 1hr
in
rain 24hr
in
rain mn
in
humidity
%
barometer
mb
20260505230007 63 121 0.0 0.0 0.00 0.00 0.00 64 1017.3
20260505224505 63 121 0.0 0.0 0.00 0.00 0.00 64 1017.4
20260505223019 63 121 0.0 0.0 0.00 0.00 0.00 64 1017.5
20260505221523 63 121 0.0 0.0 0.00 0.00 0.00 64 1017.6
20260505220005 64 121 0.0 0.0 0.00 0.00 0.00 64 1017.6
20260505214520 64 121 0.0 0.0 0.00 0.00 0.00 64 1017.6
20260505213018 64 121 0.0 0.0 0.00 0.00 0.00 62 1017.6
20260505211512 63 198 0.0 3.0 0.00 0.00 0.00 65 1017.6
20260505210012 62 178 0.0 0.0 0.00 0.00 0.00 65 1017.7
20260505204508 62 172 0.0 0.0 0.00 0.00 0.00 66 1017.8
20260505203013 62 171 0.0 0.0 0.00 0.00 0.00 67 1018.0
20260505201517 61 75 0.0 2.0 0.00 0.00 0.00 67 1018.0
20260505200022 62 117 0.0 0.0 0.00 0.00 0.00 67 1018.0
20260505194522 61 123 0.0 2.0 0.00 0.00 0.00 67 1018.0
20260505193010 61 106 0.0 0.0 0.00 0.00 0.00 68 1018.1
20260505191518 60 106 0.0 0.0 0.00 0.00 0.00 69 1018.1
20260505190022 60 106 0.0 0.0 0.00 0.00 0.00 70 1018.1
20260505184512 60 105 0.0 0.0 0.00 0.00 0.00 70 1018.1
20260505183030 59 105 0.0 0.0 0.00 0.00 0.00 72 1018.1
20260505181523 0 0.0 0.0 0.00 0.00 0.00 1018.0
20260505180026 0 0.0 0.0 0.00 0.00 0.00 1018.1
20260505174524 56 1.0 4.0 0.00 0.00 0.00 1018.1
20260505173018 0 0.0 0.0 0.00 0.00 0.00 1018.0
20260505171515 0 0.0 0.0 0.00 0.00 0.00 1017.8
20260505170015 0 0.0 0.0 0.00 0.00 0.00 1017.8
20260505164513 0 0.0 0.0 0.00 0.00 0.00 1017.8
20260505163016 0 0.0 0.0 0.00 0.00 0.00 1017.8
20260505161506 0 0.0 0.0 0.00 0.00 0.00 1017.6
20260505153004 0 0.0 0.0 0.00 0.00 0.00 1017.6
20260505151519 0 0.0 0.0 0.00 0.00 0.00 1017.6
20260505124524 52 219 0.0 1.0 0.00 0.00 0.00 89 1016.5
20260505123006 52 261 0.0 1.0 0.00 0.00 0.00 89 1016.5
20260505121512 52 266 0.0 2.0 0.00 0.00 0.00 89 1016.5
20260505120028 52 244 0.0 3.0 0.00 0.00 0.00 90 1016.3
20260505114508 52 260 1.0 2.0 0.00 0.00 0.00 90 1016.3
20260505113024 52 253 0.0 3.0 0.00 0.00 0.00 90 1016.3
20260505111525 53 254 0.0 1.0 0.00 0.00 0.00 90 1016.3
20260505101522 52 236 1.0 4.0 0.00 0.00 0.00 89 1015.9
20260505100014 52 192 0.0 5.0 0.00 0.00 0.00 89 1015.9
20260505094516 52 227 0.0 6.0 0.00 0.00 0.00 90 1015.9
20260505093018 52 207 1.0 6.0 0.00 0.00 0.00 90 1015.8
20260505091522 52 218 0.0 4.0 0.00 0.00 0.00 90 1015.8
20260505090023 52 214 0.0 3.0 0.00 0.00 0.00 90 1015.7
20260505084524 52 249 2.0 6.0 0.00 0.00 0.00 90 1015.7
20260505083020 53 201 2.0 6.0 0.00 0.00 0.00 89 1015.6
20260505081516 53 204 4.0 8.0 0.00 0.00 0.00 89 1015.5
20260505080015 53 217 1.0 6.0 0.00 0.00 0.00 89 1015.3
20260505074527 53 220 3.0 6.0 0.00 0.00 0.00 88 1015.2
20260505073026 53 219 2.0 6.0 0.00 0.00 0.00 88 1015.1
20260505071529 54 201 4.0 9.0 0.00 0.00 0.00 87 1015.0
20260505070026 54 238 3.0 8.0 0.00 0.00 0.00 86 1014.7
20260505064522 54 223 2.0 6.0 0.00 0.00 0.00 86 1014.7
20260505063010 54 200 3.0 7.0 0.00 0.00 0.00 86 1014.5
20260505061517 55 215 1.0 6.0 0.00 0.00 0.00 85 1014.5
20260505060034 56 207 3.0 7.0 0.00 0.00 0.00 84 1014.3
20260505054517 57 215 2.0 7.0 0.00 0.00 0.00 83 1014.3
20260505053004 58 212 3.0 11.0 0.00 0.00 0.00 82 1014.1
20260505051516 59 215 3.0 14.0 0.00 0.00 0.00 81 1014.1
20260505041507 62 216 2.0 10.0 0.00 0.00 0.00 75 1013.3
20260505040010 63 248 4.0 9.0 0.00 0.00 0.00 74 1013.1
20260505034516 64 268 4.0 8.0 0.00 0.00 0.00 73 1012.8
20260505033015 65 207 3.0 9.0 0.00 0.00 0.00 73 1012.6
20260505031513 66 241 3.0 10.0 0.00 0.00 0.00 72 1012.3
20260505030007 68 279 0.0 1.0 0.00 0.00 0.00 63 1012.1
20260505024510 69 77 0.0 0.0 0.00 0.00 0.00 62 1011.9
20260505023027 69 128 0.0 0.0 0.00 0.00 0.00 61 1011.9
20260505021514 70 116 0.0 4.0 0.00 0.00 0.00 59 1011.9
20260505020016 70 107 0.0 3.0 0.00 0.00 0.00 59 1011.8
20260505014521 71 189 0.0 6.0 0.00 0.00 0.00 57 1011.9
20260505013014 72 57 0.0 2.0 0.00 0.00 0.00 57 1011.9
20260505011512 71 111 0.0 7.0 0.00 0.00 0.00 56 1012.1
20260505010012 72 117 0.0 6.0 0.00 0.00 0.00 56 1012.2
20260505004522 72 101 0.0 3.0 0.00 0.00 0.00 55 1012.3
20260505003019 72 209 0.0 5.0 0.00 0.00 0.00 55 1012.5
20260505001524 72 107 0.0 4.0 0.00 0.00 0.00 55 1012.7
20260505000026 72 114 1.0 6.0 0.00 0.00 0.00 55 1012.7
20260504234514 72 112 0.0 6.0 0.00 0.00 0.00 54 1012.8
20260504233005 72 127 0.0 2.0 0.00 0.00 0.00 54 1012.9
20260504231505 72 95 0.0 0.0 0.00 0.00 0.00 54 1013.0